Home   Weather   Bad Salzuflen   Past weeks

Flag for Germany Past Weather in Bad Salzuflen, North Rhine-Westphalia, Germany — Yesterday and Last 2 Weeks

Now
23 °F

Passing clouds.


Feels Like: 18 °F
Forecast: 29 / 38 °F
Wind: 3 mph from Southeast

Location: Bueckeburg

Current Time: Dec 6, 2016 at 6:55:35 am

Latest Report: Dec 6, 2016 at 6:20 am


Visibility: N/A

Pressure: 30.39 "Hg

Humidity: 93%

Dew Point: 21 °F

Location of Bad SalzuflenLocation

Past Weather in Bad Salzuflen — Graph

°F

Bad Salzuflen Temperature Yesterday

Maximum temperature yesterday: 39 °F (at 1:20 pm)
Minimum temperature yesterday: 23 °F (at 2:20 am)
Average temperature yesterday: 29 °F

High & Low Weather Summary for the Past Weeks

 TemperatureHumidityPressure
High61 °F (Nov 21, 10:20 pm)100% (Nov 23, 7:20 am)30.60 "Hg (Nov 23, 7:20 am)
Low21 °F (Nov 29, 3:20 am)52% (Dec 5, 1:20 pm)29.56 "Hg (Nov 21, 6:20 pm)
Average37 °F86%30.21 "Hg
* Reported Nov 21 6:20 am — Dec 6 5:20 am, Bad Salzuflen, Weather by CustomWeather, © 2016

Note: Actual official high and low records may vary slightly from our data, if they occured in-between our weather recording intervals... More about our weather records

Advertising

Bad Salzuflen Weather History for the Previous 24 Hours

Scroll right to see more
 ConditionsComfort  
Time TempWeatherWind HumidityBarometerVisibility
5:20 am
Tue, Dec 6
23 °FPassing clouds.5 mph100%30.39 "HgN/A
4:20 am23 °FPassing clouds.3 mph93%30.39 "HgN/A
3:20 am23 °FPassing clouds.2 mph93%30.36 "HgN/A
2:20 am23 °FPassing clouds.3 mph100%30.36 "HgN/A
1:20 am25 °FPassing clouds.1 mph86%30.36 "HgN/A
12:20 am27 °FPassing clouds.3 mph86%30.36 "HgN/A
11:20 pm
Mon, Dec 5
25 °FPassing clouds.3 mph93%30.33 "HgN/A
10:20 pm27 °FPassing clouds.2 mph86%30.33 "HgN/A
9:20 pm27 °FPassing clouds.2 mph86%30.33 "HgN/A
8:20 pm28 °FPassing clouds.5 mph86%30.33 "HgN/A
7:20 pm27 °FChilly.6 mph93%30.33 "HgN/A
6:20 pm28 °FChilly.1 mph86%30.33 "HgN/A
5:20 pm28 °FPassing clouds.3 mph86%30.30 "HgN/A
4:20 pm32 °FPassing clouds.5 mph75%30.30 "HgN/A
3:20 pm37 °FPassing clouds.2 mph60%30.30 "HgN/A
2:20 pm39 °FPassing clouds.1 mph52%30.30 "HgN/A
1:20 pm39 °FPassing clouds.3 mph52%30.30 "HgN/A
12:20 pm37 °FPassing clouds.7 mph56%30.30 "HgN/A
11:20 am36 °FPassing clouds.7 mph60%30.30 "HgN/A
10:20 am34 °FChilly.8 mph65%30.30 "HgN/A
9:20 am25 °FCold.2 mph80%30.30 "HgN/A
8:20 am25 °FCold.1 mph74%30.30 "HgN/A
7:20 am25 °FCold.2 mph86%30.30 "HgN/A
6:20 am25 °FCold.3 mph86%30.30 "HgN/A
Weather by CustomWeather, © 2016

See weather overviewHow to use our weather pages